User: anonymous   Login
Location: Unspecified
(0.0000°N, 0.0000°E)
Time: 06:27:09
(UTC+00:00)
Language:

ISS - Orbit

View from above orbital plane
View from above orbital plane
View from above satellite
View from above satellite

Ground track
Ground track

The orbit data is extracted from the following two-line orbital elements,

1 25544U 98067A   17346.53562724  .00016717  00000-0  10270-3 0  9013
2 25544  51.6418 229.2358 0002919 232.7995 127.2891 15.54103759  9487
Epoch (UTC): 12 December 2017 12:51:18
Eccentricity: 0.0002919
inclination: 51.6418°
perigee height: 403 km
apogee height: 407 km
right ascension of ascending node: 229.2358°
argument of perigee: 232.7995°
revolutions per day: 15.54103759
mean anomaly at epoch: 127.2891°
orbit number at epoch: 948

The dashed part of the orbit path shows where the satellite is in the earth's shadow,  

DLR